Total_Precipitation_Accumulation
0.28 0.27 0.29 0.49 0.49 0.53 0.55 0.59 0.60 0.80 1.05 1.30 1.66 2.17 2.71 2.42 2.06 1.88 1.89 1.84 1.69 1.56 1.74 1.78 1.63 1.69 1.80 1.49 1.38 1.46 1.34 1.41 1.38 0.89 0.85 0.94 0.89 0.67 0.54 0.61 0.71 0.88 1.00
0.74 0.61 0.57 0.71 0.70 0.70 0.87 0.89 0.99 1.17 1.28 1.55 1.87 2.29 2.61 2.88 2.70 2.41 2.06 1.85 1.83 1.59 1.52 1.85 1.72 1.87 2.11 1.95 1.85 1.59 1.46 1.32 1.65 1.33 1.23 1.36 1.60 1.46 1.04 0.77 0.59 0.59 0.74
0.58 0.98 0.92 1.02 0.82 1.09 1.18 1.43 1.66 1.73 1.83 1.88 1.94 2.06 2.21 2.30 2.59 2.38 1.89 1.54 1.55 1.48 1.31 1.32 1.36 1.61 1.64 1.70 1.79 1.58 1.53 1.76 2.05 1.84 1.55 1.38 1.32 1.33 1.25 1.16 0.93 0.63 0.57
0.64 0.67 0.63 0.76 1.03 1.24 1.25 1.33 1.71 1.87 1.69 1.43 1.39 1.38 1.13 1.14 1.54 1.81 1.90 1.90 1.78 1.70 1.63 1.54 1.38 1.54 1.51 1.68 2.01 2.17 2.13 2.23 2.22 1.91 1.81 1.64 1.39 1.20 1.27 1.33 1.41 1.27 1.03
0.68 0.69 0.59 0.72 1.12 1.31 1.61 1.60 1.34 1.07 0.97 0.94 0.85 0.80 0.81 0.96 1.38 1.51 1.66 1.75 2.00 2.05 1.88 1.86 1.90 2.15 2.18 2.06 1.97 1.88 2.10 2.15 2.07 2.43 2.52 2.15 1.84 1.87 1.60 1.42 1.37 1.34 1.40
0.50 0.46 0.60 0.75 0.67 0.74 0.71 0.63 0.67 0.82 0.87 0.76 0.59 0.54 0.54 0.65 1.21 1.45 1.76 1.77 1.90 2.21 2.05 1.80 1.77 2.14 1.96 2.36 2.32 2.38 2.30 2.22 2.20 1.91 1.81 1.85 1.82 1.57 1.88 2.08 2.08 1.81 1.59
0.35 0.35 0.38 0.39 0.39 0.33 0.26 0.28 0.33 0.38 0.44 0.58 0.70 0.56 0.37 0.59 1.13 1.01 1.46 1.45 1.69 2.07 2.16 2.11 2.21 2.52 2.47 2.03 2.43 2.44 2.65 2.60 2.25 2.09 2.01 1.53 1.66 1.50 1.54 2.00 1.72 1.47 1.37
0.38 0.27 0.20 0.17 0.15 0.17 0.27 0.34 0.35 0.33 0.26 0.25 0.36 0.75 1.09 1.02 1.07 0.94 1.15 1.03 1.20 1.68 1.97 2.11 2.30 2.43 2.42 2.23 2.30 2.54 2.26 2.07 1.97 1.86 1.75 1.55 1.35 1.37 1.78 1.91 2.25 2.55 2.09
0.56 0.47 0.31 0.18 0.16 0.26 0.40 0.47 0.39 0.35 0.42 0.35 0.34 0.39 0.52 0.90 1.22 0.74 0.64 0.69 0.82 0.87 1.13 1.53 1.86 2.13 2.78 2.45 2.35 2.56 2.36 2.07 2.16 2.26 2.21 1.89 2.06 2.15 2.02 2.50 2.58 2.53 2.44
0.79 0.64 0.49 0.31 0.28 0.36 0.35 0.28 0.28 0.38 0.39 0.52 0.61 0.43 0.55 0.34 0.78 0.72 0.49 0.34 0.67 0.70 0.71 1.01 1.52 1.50 1.83 1.76 1.77 1.79 2.00 1.88 1.71 1.76 1.98 2.26 2.14 2.31 2.25 2.15 2.42 2.59 2.24
0.89 0.72 0.50 0.38 0.38 0.32 0.27 0.27 0.33 0.38 0.45 0.43 0.43 0.51 0.50 0.41 0.51 0.65 0.67 0.43 0.57 0.64 0.53 0.50 0.65 1.02 1.13 1.25 1.35 1.44 1.61 1.40 1.47 1.63 1.75 1.84 1.86 1.82 2.07 2.10 2.15 2.71 2.63
1.36 0.87 0.78 0.65 0.39 0.31 0.26 0.25 0.31 0.40 0.45 0.45 0.41 0.36 0.42 0.62 0.79 0.71 0.67 0.71 0.75 0.88 0.94 0.93 0.94 0.82 0.72 0.81 1.03 1.32 1.31 1.17 1.27 1.50 1.65 1.68 1.81 1.83 1.68 1.82 1.84 1.97 2.03
1.85 1.81 1.36 0.89 0.75 0.69 0.66 0.61 0.53 0.49 0.47 0.51 0.53 0.53 0.55 0.56 0.84 0.98 0.88 0.90 0.84 0.82 0.92 0.98 0.98 0.90 0.75 0.74 0.75 0.86 1.02 1.23 1.31 1.37 1.34 1.26 1.31 1.44 1.52 1.72 1.93 2.02 2.12
0.92 1.50 1.87 1.89 1.14 0.99 1.14 1.14 1.29 1.28 1.02 0.99 1.07 1.09 1.02 0.89 0.83 0.83 0.89 0.94 0.99 0.96 0.92 0.80 0.78 0.76 0.80 0.93 0.95 0.85 0.91 1.00 1.09 1.19 1.15 1.06 1.00 1.15 1.34 1.49 1.71 1.77 2.28
0.57 0.98 1.28 1.96 1.93 1.11 1.00 1.22 1.19 1.48 1.60 1.35 1.21 1.26 1.38 1.44 1.43 1.47 1.31 1.19 1.13 1.04 0.98 1.03 0.92 0.73 0.62 0.57 0.53 0.44 0.45 0.52 0.63 0.65 0.74 0.82 0.96 1.02 1.07 1.17 1.38 1.48 1.77
0.51 0.91 1.21 1.48 2.05 2.05 1.46 1.66 2.00 2.12 2.07 2.17 2.22 1.99 2.08 2.04 1.89 1.54 1.40 1.36 1.22 1.03 0.90 0.72 0.62 0.60 0.58 0.53 0.59 0.62 0.47 0.47 0.40 0.43 0.55 0.53 0.65 0.82 0.93 1.02 1.17 1.33 1.36
0.46 0.59 0.94 1.34 1.74 1.95 2.05 1.83 1.91 2.07 1.99 1.96 1.95 1.80 1.67 1.86 1.80 1.62 1.36 1.20 1.09 0.88 0.93 0.79 0.76 0.73 0.72 0.66 0.61 0.58 0.61 0.65 0.59 0.60 0.63 0.61 0.55 0.58 0.82 0.80 0.91 1.13 1.19
0.87 1.15 1.20 1.36 1.78 2.09 2.21 2.16 2.05 1.82 1.66 1.88 1.93 1.91 1.94 1.82 1.85 1.74 1.51 1.18 1.07 0.94 0.94 0.94 0.92 0.81 0.75 0.71 0.64 0.63 0.61 0.57 0.54 0.52 0.67 0.67 0.67 0.66 0.66 0.68 0.73 0.86 0.96
1.42 1.45 1.50 1.65 1.68 1.75 1.86 1.88 1.78 1.73 1.70 1.73 1.66 1.47 1.45 1.42 1.29 1.22 1.20 1.30 1.20 1.08 0.99 1.05 1.10 1.02 0.91 0.81 0.78 0.73 0.70 0.70 0.65 0.61 0.60 0.59 0.58 0.65 0.65 0.63 0.70 0.75 0.80
1.22 1.08 0.92 0.95 1.17 1.32 1.32 1.38 1.52 1.55 1.57 1.56 1.54 1.61 1.31 1.03 1.14 1.26 1.34 1.42 1.55 1.62 1.54 1.42 1.31 1.31 1.26 1.18 1.11 1.02 0.92 0.85 0.77 0.70 0.68 0.66 0.68 0.68 0.66 0.68 0.73 0.88 0.88
0.72 0.71 0.65 0.65 0.70 0.78 0.95 1.08 1.17 1.18 1.22 1.22 1.31 1.38 1.38 1.45 1.52 1.47 1.52 1.56 1.51 1.46 1.45 1.40 1.30 1.21 1.16 1.14 1.10 1.06 1.01 1.00 0.93 0.86 0.81 0.78 0.77 0.78 0.73 0.72 0.70 0.66 0.66
0.42 0.43 0.49 0.58 0.60 0.63 0.71 0.76 0.75 0.77 0.84 0.88 0.97 0.97 0.93 1.05 1.15 1.22 1.30 1.33 1.30 1.23 1.18 1.12 1.07 1.07 1.12 1.09 1.04 0.97 0.91 0.87 0.87 0.85 0.79 0.73 0.72 0.70 0.73 0.73 0.69 0.71 0.72
0.34 0.38 0.39 0.40 0.47 0.50 0.52 0.63 0.69 0.66 0.66 0.72 0.74 0.78 0.81 0.93 0.96 0.96 0.98 1.01 0.98 0.99 0.99 0.97 0.93 0.86 0.78 0.81 0.87 0.95 1.01 0.94 0.94 0.89 0.87 0.79 0.73 0.71 0.73 0.78 0.74 0.73 0.68
0.23 0.29 0.29 0.35 0.45 0.48 0.57 0.61 0.56 0.52 0.56 0.61 0.65 0.70 0.76 0.81 0.87 0.87 0.87 0.85 0.79 0.77 0.73 0.74 0.76 0.75 0.70 0.70 0.72 0.77 0.83 0.86 0.86 0.84 0.81 0.78 0.74 0.72 0.75 0.73 0.71 0.72 0.74
0.28 0.32 0.37 0.43 0.42 0.43 0.43 0.41 0.45 0.46 0.50 0.51 0.55 0.58 0.60 0.61 0.62 0.63 0.65 0.64 0.62 0.58 0.59 0.60 0.67 0.68 0.66 0.66 0.70 0.67 0.66 0.66 0.69 0.67 0.67 0.64 0.62 0.61 0.64 0.68 0.67 0.70 0.70
0.30 0.31 0.29 0.28 0.31 0.32 0.34 0.37 0.38 0.39 0.43 0.42 0.43 0.46 0.48 0.48 0.48 0.47 0.46 0.44 0.45 0.45 0.44 0.46 0.47 0.45 0.44 0.49 0.55 0.52 0.50 0.53 0.57 0.57 0.60 0.55 0.53 0.53 0.53 0.54 0.51 0.56 0.55